Location: Napa Soda Springs
(38.3907°N, 122.2794°W)
Time: 21:18:31
(UTC+00:00)

FENGYUN 3A - Pass Details

Date: 29 October 2020
Orbit: 824 x 835 km, 98.4° (Epoch: 24 November)

Event Time Altitude Azimuth Distance (km) Brightness Sun altitude
Rises 12:34:13 0° 15° (NNE) 3,392 7.0 -23.8°
Reaches altitude 10° 12:36:36 10° 17° (NNE) 2,454 6.3 -23.3°
Maximum altitude 12:42:03 73° 102° (ESE) 873 3.8 -22.2°
Drops below altitude 10° 12:47:27 10° 187° (S) 2,436 6.0 -21.2°
Sets 12:49:48 0° 189° (S) 3,365 6.7 -20.7°
